Time,TemperatureF,DewpointF,PressureIn,WindDirection,WindDirectionDegrees,WindSpeedMPH,WindSpeedGustMPH,Humidity,HourlyPrecipIn,Conditions,Clouds,dailyrainin,SoftwareType,DateUTC
2013-01-21 00:00:00,20.9,12.0,30.17,SSE,155,0.0,6.0,68,0.00,,---,0.00,VWS V14.01,2013-01-21 05:00:00,
2013-01-21 00:02:00,20.8,11.9,30.16,South,187,0.0,5.0,68,0.00,,---,0.00,VWS V14.01,2013-01-21 05:02:00,
2013-01-21 00:03:00,20.8,11.9,30.17,South,187,1.0,5.0,68,0.00,,---,0.00,VWS V14.01,2013-01-21 05:03:00,
2013-01-21 00:08:00,20.7,12.1,30.16,SSW,198,0.0,5.0,69,0.00,,---,0.00,VWS V14.01,2013-01-21 05:08:00,
2013-01-21 00:13:00,20.7,12.5,30.17,NW,305,0.0,5.0,70,0.00,,---,0.00,VWS V14.01,2013-01-21 05:13:00,
2013-01-21 00:18:00,20.6,12.4,30.17,SSW,207,0.0,5.0,70,0.00,,---,0.00,VWS V14.01,2013-01-21 05:18:00,
2013-01-21 00:23:00,20.6,12.7,30.16,SSE,154,0.0,5.0,71,0.00,,---,0.00,VWS V14.01,2013-01-21 05:23:00,
2013-01-21 00:28:00,20.7,12.8,30.16,SW,227,0.0,0.0,71,0.00,,---,0.00,VWS V14.01,2013-01-21 05:28:00,
2013-01-21 00:30:00,20.7,13.1,30.16,SW,227,0.0,5.0,72,0.00,,---,0.00,VWS V14.01,2013-01-21 05:30:00,
2013-01-21 00:33:00,20.7,12.8,30.16,South,180,4.0,4.0,71,0.00,,---,0.00,VWS V14.01,2013-01-21 05:33:00,
2013-01-21 00:38:00,20.5,12.6,30.16,SSW,201,2.0,6.0,71,0.00,,---,0.00,VWS V14.01,2013-01-21 05:38:00,
2013-01-21 00:43:00,20.5,12.9,30.16,SW,217,0.0,6.0,72,0.00,,---,0.00,VWS V14.01,2013-01-21 05:43:00,
2013-01-21 00:48:00,20.5,12.9,30.15,SSW,199,0.0,6.0,72,0.00,,---,0.00,VWS V14.01,2013-01-21 05:48:00,
2013-01-21 00:53:00,20.4,12.8,30.15,SSW,199,0.0,6.0,72,0.00,,---,0.00,VWS V14.01,2013-01-21 05:53:00,
2013-01-21 00:58:00,20.4,12.8,30.15,SSW,198,0.0,1.0,72,0.00,,---,0.00,VWS V14.01,2013-01-21 05:58:00,
2013-01-21 01:00:00,20.5,13.2,30.15,SSW,198,0.0,6.0,73,0.00,,---,0.00,VWS V14.01,2013-01-21 06:00:00,
2013-01-21 01:03:00,20.4,12.8,30.15,SSW,198,0.0,1.0,72,0.00,,---,0.00,VWS V14.01,2013-01-21 06:03:00,
2013-01-21 01:08:00,20.3,12.7,30.15,SSE,155,2.0,3.0,72,0.00,,---,0.00,VWS V14.01,2013-01-21 06:08:00,
2013-01-21 01:13:00,20.2,12.6,30.14,South,170,5.0,5.0,72,0.00,,---,0.00,VWS V14.01,2013-01-21 06:13:00,
2013-01-21 01:18:00,20.1,12.2,30.14,SSE,157,0.0,5.0,71,0.00,,---,0.00,VWS V14.01,2013-01-21 06:18:00,
2013-01-21 01:23:00,20.0,12.1,30.14,SW,220,0.0,5.0,71,0.00,,---,0.00,VWS V14.01,2013-01-21 06:23:00,
2013-01-21 01:28:00,20.0,12.1,30.14,WSW,249,0.0,1.0,71,0.00,,---,0.00,VWS V14.01,2013-01-21 06:28:00,
2013-01-21 01:30:00,20.0,12.1,30.14,SW,220,0.0,5.0,71,0.00,,---,0.00,VWS V14.01,2013-01-21 06:30:00,
2013-01-21 01:33:00,20.0,12.1,30.14,SSW,200,0.0,3.0,71,0.00,,---,0.00,VWS V14.01,2013-01-21 06:33:00,
2013-01-21 01:38:00,20.0,12.1,30.14,SSW,200,2.0,3.0,71,0.00,,---,0.00,VWS V14.01,2013-01-21 06:38:00,
2013-01-21 01:43:00,20.0,11.8,30.14,SSW,197,3.0,5.0,70,0.00,,---,0.00,VWS V14.01,2013-01-21 06:43:00,
2013-01-21 01:48:00,19.8,11.9,30.14,SSW,210,0.0,5.0,71,0.00,,---,0.00,VWS V14.01,2013-01-21 06:48:00,
2013-01-21 01:53:00,19.8,11.9,30.14,SW,230,0.0,5.0,71,0.00,,---,0.00,VWS V14.01,2013-01-21 06:53:00,
2013-01-21 01:58:00,19.8,11.6,30.14,South,170,8.0,8.0,70,0.00,,---,0.00,VWS V14.01,2013-01-21 06:58:00,
2013-01-21 02:00:00,19.8,11.6,30.14,WSW,241,1.0,5.0,70,0.00,,---,0.00,VWS V14.01,2013-01-21 07:00:00,
2013-01-21 02:03:00,19.8,11.6,30.14,SE,128,2.0,8.0,70,0.00,,---,0.00,VWS V14.01,2013-01-21 07:03:00,
2013-01-21 02:08:00,19.7,11.2,30.14,SSW,202,0.0,8.0,69,0.00,,---,0.00,VWS V14.01,2013-01-21 07:08:00,
2013-01-21 02:13:00,19.7,11.5,30.14,South,188,1.0,8.0,70,0.00,,---,0.00,VWS V14.01,2013-01-21 07:13:00,
2013-01-21 02:19:00,19.7,11.8,30.14,SSW,195,0.0,8.0,71,0.00,,---,0.00,VWS V14.01,2013-01-21 07:19:00,
2013-01-21 02:23:00,19.7,12.1,30.14,SSW,205,2.0,8.0,72,0.00,,---,0.00,VWS V14.01,2013-01-21 07:23:00,
2013-01-21 02:28:00,19.6,12.1,30.13,South,189,3.0,3.0,72,0.00,,---,0.00,VWS V14.01,2013-01-21 07:28:00,
2013-01-21 02:30:00,19.6,12.1,30.14,SSW,205,0.0,8.0,72,0.00,,---,0.00,VWS V14.01,2013-01-21 07:30:00,
2013-01-21 02:34:00,19.5,12.3,30.14,West,270,1.0,3.0,73,0.00,,---,0.00,VWS V14.01,2013-01-21 07:34:00,
2013-01-21 02:39:00,19.5,12.3,30.14,SW,232,0.0,3.0,73,0.00,,---,0.00,VWS V14.01,2013-01-21 07:39:00,
2013-01-21 02:44:00,19.5,12.6,30.14,South,188,0.0,3.0,74,0.00,,---,0.00,VWS V14.01,2013-01-21 07:44:00,
2013-01-21 02:49:00,19.5,12.6,30.14,East,101,0.0,4.0,74,0.00,,---,0.00,VWS V14.01,2013-01-21 07:49:00,
2013-01-21 02:54:00,19.4,12.5,30.14,SW,215,0.0,4.0,74,0.00,,---,0.00,VWS V14.01,2013-01-21 07:54:00,
2013-01-21 02:59:00,19.4,12.8,30.14,SW,215,0.0,1.0,75,0.00,,---,0.00,VWS V14.01,2013-01-21 07:59:00,
2013-01-21 03:00:00,19.4,12.5,30.14,SW,215,0.0,4.0,74,0.00,,---,0.00,VWS V14.01,2013-01-21 08:00:00,
2013-01-21 03:04:00,19.3,12.4,30.14,West,267,0.0,4.0,74,0.00,,---,0.00,VWS V14.01,2013-01-21 08:04:00,
2013-01-21 03:09:00,19.3,12.4,30.14,SSW,205,1.0,4.0,74,0.00,,---,0.00,VWS V14.01,2013-01-21 08:09:00,
2013-01-21 03:14:00,19.2,12.3,30.13,South,190,0.0,5.0,74,0.00,,---,0.00,VWS V14.01,2013-01-21 08:14:00,
2013-01-21 03:19:00,19.2,12.3,30.13,South,188,0.0,5.0,74,0.00,,---,0.00,VWS V14.01,2013-01-21 08:19:00,
2013-01-21 03:24:00,19.2,12.3,30.13,South,170,1.0,5.0,74,0.00,,---,0.00,VWS V14.01,2013-01-21 08:24:00,
2013-01-21 03:29:00,19.3,12.7,30.13,SW,236,0.0,1.0,75,0.00,,---,0.00,VWS V14.01,2013-01-21 08:29:00,
2013-01-21 03:30:00,19.3,12.7,30.13,South,170,0.0,5.0,75,0.00,,---,0.00,VWS V14.01,2013-01-21 08:30:00,
2013-01-21 03:34:00,19.3,12.7,30.13,SW,234,0.0,4.0,75,0.00,,---,0.00,VWS V14.01,2013-01-21 08:34:00,
2013-01-21 03:39:00,19.3,12.4,30.13,SW,234,0.0,4.0,74,0.00,,---,0.00,VWS V14.01,2013-01-21 08:39:00,
2013-01-21 03:44:00,19.3,12.4,30.13,SSW,195,0.0,4.0,74,0.00,,---,0.00,VWS V14.01,2013-01-21 08:44:00,
2013-01-21 03:49:00,19.2,12.0,30.12,SSW,206,0.0,4.0,73,0.00,,---,0.00,VWS V14.01,2013-01-21 08:49:00,
2013-01-21 03:54:00,19.1,11.9,30.12,SSW,199,0.0,5.0,73,0.00,,---,0.00,VWS V14.01,2013-01-21 08:54:00,
2013-01-21 03:59:00,19.1,11.9,30.12,SW,228,0.0,2.0,73,0.00,,---,0.00,VWS V14.01,2013-01-21 08:59:00,
2013-01-21 04:00:00,19.1,11.9,30.12,SW,228,1.0,5.0,73,0.00,,---,0.00,VWS V14.01,2013-01-21 09:00:00,
2013-01-21 04:04:00,19.2,12.0,30.12,SW,228,0.0,2.0,73,0.00,,---,0.00,VWS V14.01,2013-01-21 09:04:00,
2013-01-21 04:09:00,19.1,11.6,30.12,SSW,213,0.0,3.0,72,0.00,,---,0.00,VWS V14.01,2013-01-21 09:09:00,
2013-01-21 04:14:00,19.1,11.6,30.12,SSW,192,1.0,4.0,72,0.00,,---,0.00,VWS V14.01,2013-01-21 09:14:00,
2013-01-21 04:19:00,19.1,11.3,30.12,WSW,249,0.0,4.0,71,0.00,,---,0.00,VWS V14.01,2013-01-21 09:19:00,
2013-01-21 04:24:00,19.1,11.6,30.11,West,266,0.0,4.0,72,0.00,,---,0.00,VWS V14.01,2013-01-21 09:24:00,
2013-01-21 04:29:00,19.1,11.3,30.11,SSW,210,0.0,0.0,71,0.00,,---,0.00,VWS V14.01,2013-01-21 09:29:00,
2013-01-21 04:30:00,19.1,11.3,30.11,SSW,210,0.0,6.0,71,0.00,,---,0.00,VWS V14.01,2013-01-21 09:30:00,
2013-01-21 04:34:00,19.1,11.3,30.11,SSW,210,0.0,2.0,71,0.00,,---,0.00,VWS V14.01,2013-01-21 09:34:00,
2013-01-21 04:39:00,19.0,11.2,30.11,WSW,238,0.0,2.0,71,0.00,,---,0.00,VWS V14.01,2013-01-21 09:39:00,
2013-01-21 04:44:00,19.1,11.3,30.11,SSW,201,0.0,3.0,71,0.00,,---,0.00,VWS V14.01,2013-01-21 09:44:00,
2013-01-21 04:49:00,19.0,11.2,30.11,West,267,0.0,4.0,71,0.00,,---,0.00,VWS V14.01,2013-01-21 09:49:00,
2013-01-21 04:54:00,19.0,10.8,30.10,SW,219,0.0,4.0,70,0.00,,---,0.00,VWS V14.01,2013-01-21 09:54:00,
2013-01-21 04:59:00,19.0,10.8,30.10,WSW,237,0.0,0.0,70,0.00,,---,0.00,VWS V14.01,2013-01-21 09:59:00,
2013-01-21 05:00:00,19.0,10.8,30.10,WSW,237,0.0,4.0,70,0.00,,---,0.00,VWS V14.01,2013-01-21 10:00:00,
2013-01-21 05:04:00,19.0,10.8,30.10,South,175,0.0,2.0,70,0.00,,---,0.00,VWS V14.01,2013-01-21 10:04:00,
2013-01-21 05:09:00,19.0,11.2,30.10,South,186,2.0,3.0,71,0.00,,---,0.00,VWS V14.01,2013-01-21 10:09:00,
2013-01-21 05:14:00,18.9,10.8,30.10,SW,221,0.0,7.0,70,0.00,,---,0.00,VWS V14.01,2013-01-21 10:14:00,
2013-01-21 05:19:00,18.9,11.1,30.10,SSW,197,0.0,7.0,71,0.00,,---,0.00,VWS V14.01,2013-01-21 10:19:00,
2013-01-21 05:24:00,18.9,11.1,30.10,SSE,162,1.0,7.0,71,0.00,,---,0.00,VWS V14.01,2013-01-21 10:24:00,
2013-01-21 05:29:00,18.9,11.1,30.10,SSE,161,0.0,1.0,71,0.00,,---,0.00,VWS V14.01,2013-01-21 10:29:00,
2013-01-21 05:30:00,18.9,11.1,30.10,SSE,154,0.0,7.0,71,0.00,,---,0.00,VWS V14.01,2013-01-21 10:30:00,
2013-01-21 05:34:00,18.9,11.1,30.10,South,191,0.0,2.0,71,0.00,,---,0.00,VWS V14.01,2013-01-21 10:34:00,
2013-01-21 05:39:00,19.0,11.5,30.10,SSW,206,0.0,3.0,72,0.00,,---,0.00,VWS V14.01,2013-01-21 10:39:00,
2013-01-21 05:44:00,18.9,11.4,30.10,SSW,206,1.0,3.0,72,0.00,,---,0.00,VWS V14.01,2013-01-21 10:44:00,
2013-01-21 05:49:00,18.9,10.8,30.10,SW,216,1.0,5.0,70,0.00,,---,0.00,VWS V14.01,2013-01-21 10:49:00,
2013-01-21 05:54:00,18.8,10.6,30.10,SW,216,0.0,5.0,70,0.00,,---,0.00,VWS V14.01,2013-01-21 10:54:00,
2013-01-21 05:59:00,18.9,11.1,30.09,SW,216,0.0,0.0,71,0.00,,---,0.00,VWS V14.01,2013-01-21 10:59:00,
2013-01-21 06:00:00,18.8,11.0,30.10,SW,216,0.0,5.0,71,0.00,,---,0.00,VWS V14.01,2013-01-21 11:00:00,
2013-01-21 06:04:00,18.9,11.1,30.09,SSW,203,3.0,6.0,71,0.00,,---,0.00,VWS V14.01,2013-01-21 11:04:00,
2013-01-21 06:09:00,18.7,10.6,30.09,South,180,3.0,6.0,70,0.00,,---,0.00,VWS V14.01,2013-01-21 11:09:00,
2013-01-21 06:14:00,18.7,10.9,30.09,South,180,0.0,6.0,71,0.00,,---,0.00,VWS V14.01,2013-01-21 11:14:00,
2013-01-21 06:19:00,18.8,11.0,30.09,South,180,1.0,6.0,71,0.00,,---,0.00,VWS V14.01,2013-01-21 11:19:00,
2013-01-21 06:24:00,18.8,10.6,30.09,SSW,196,0.0,6.0,70,0.00,,---,0.00,VWS V14.01,2013-01-21 11:24:00,
2013-01-21 06:29:00,18.8,10.6,30.09,West,270,0.0,2.0,70,0.00,,---,0.00,VWS V14.01,2013-01-21 11:29:00,
2013-01-21 06:30:00,18.8,11.0,30.09,SSW,196,0.0,6.0,71,0.00,,---,0.00,VWS V14.01,2013-01-21 11:30:00,
2013-01-21 06:34:00,18.8,10.6,30.09,West,265,1.0,2.0,70,0.00,,---,0.00,VWS V14.01,2013-01-21 11:34:00,
2013-01-21 06:39:00,18.6,10.1,30.09,SSW,202,0.0,6.0,69,0.00,,---,0.00,VWS V14.01,2013-01-21 11:39:00,
2013-01-21 06:44:00,18.7,10.2,30.09,SSW,202,0.0,6.0,69,0.00,,---,0.00,VWS V14.01,2013-01-21 11:44:00,
2013-01-21 06:49:00,18.6,10.1,30.09,SSW,204,0.0,6.0,69,0.00,,---,0.00,VWS V14.01,2013-01-21 11:49:00,
2013-01-21 06:54:00,18.6,10.1,30.09,SW,219,0.0,6.0,69,0.00,,---,0.00,VWS V14.01,2013-01-21 11:54:00,
2013-01-21 06:59:00,18.6,10.1,30.09,SW,224,0.0,2.0,69,0.00,,---,0.00,VWS V14.01,2013-01-21 11:59:00,
2013-01-21 07:00:00,18.6,10.1,30.09,SW,219,0.0,6.0,69,0.00,,---,0.00,VWS V14.01,2013-01-21 12:00:00,
2013-01-21 07:04:00,18.6,10.1,30.09,SSE,163,0.0,3.0,69,0.00,,---,0.00,VWS V14.01,2013-01-21 12:04:00,
2013-01-21 07:10:00,18.6,9.8,30.09,SSW,204,1.0,5.0,68,0.00,,---,0.00,VWS V14.01,2013-01-21 12:10:00,
2013-01-21 07:15:00,18.5,9.7,30.09,SSW,204,0.0,5.0,68,0.00,,---,0.00,VWS V14.01,2013-01-21 12:15:00,
2013-01-21 07:20:00,18.6,10.5,30.09,SSW,203,2.0,5.0,70,0.00,,---,0.00,VWS V14.01,2013-01-21 12:20:00,
2013-01-21 07:25:00,18.5,9.7,30.09,SW,215,0.0,5.0,68,0.00,,---,0.00,VWS V14.01,2013-01-21 12:25:00,
2013-01-21 07:30:00,18.5,9.7,30.09,South,180,0.0,3.0,68,0.00,,---,0.00,VWS V14.01,2013-01-21 12:30:00,
2013-01-21 07:35:00,18.5,10.0,30.09,South,180,0.0,3.0,69,0.00,,---,0.00,VWS V14.01,2013-01-21 12:35:00,
2013-01-21 07:40:00,18.5,10.0,30.08,SSW,193,0.0,4.0,69,0.00,,---,0.00,VWS V14.01,2013-01-21 12:40:00,
2013-01-21 07:45:00,18.5,10.4,30.08,SSW,200,1.0,4.0,70,0.00,,---,0.00,VWS V14.01,2013-01-21 12:45:00,
2013-01-21 07:50:00,18.6,10.1,30.08,SSW,205,0.0,4.0,69,0.00,,---,0.00,VWS V14.01,2013-01-21 12:50:00,
2013-01-21 07:55:00,18.5,10.0,30.08,SSW,205,0.0,4.0,69,0.00,,---,0.00,VWS V14.01,2013-01-21 12:55:00,
2013-01-21 08:00:00,18.6,10.1,30.08,SSW,195,0.0,3.0,69,0.00,,---,0.00,VWS V14.01,2013-01-21 13:00:00,
2013-01-21 08:05:00,18.6,10.5,30.08,SSW,195,2.0,3.0,70,0.00,,---,0.00,VWS V14.01,2013-01-21 13:05:00,
2013-01-21 08:10:00,18.6,10.1,30.08,SSW,195,0.0,3.0,69,0.00,,---,0.00,VWS V14.01,2013-01-21 13:10:00,
2013-01-21 08:15:00,18.6,10.5,30.08,SSW,195,0.0,3.0,70,0.00,,---,0.00,VWS V14.01,2013-01-21 13:15:00,
2013-01-21 08:20:00,18.7,10.6,30.08,SSW,195,0.0,3.0,70,0.00,,---,0.00,VWS V14.01,2013-01-21 13:20:00,
2013-01-21 08:25:00,18.6,10.1,30.08,SSW,201,0.0,3.0,69,0.00,,---,0.00,VWS V14.01,2013-01-21 13:25:00,
2013-01-21 08:30:00,18.6,10.1,30.08,South,180,1.0,2.0,69,0.00,,---,0.00,VWS V14.01,2013-01-21 13:30:00,
2013-01-21 08:35:00,18.5,9.7,30.08,SW,228,3.0,8.0,68,0.00,,---,0.00,VWS V14.01,2013-01-21 13:35:00,
2013-01-21 08:40:00,18.6,10.1,30.08,SSW,193,2.0,8.0,69,0.00,,---,0.00,VWS V14.01,2013-01-21 13:40:00,
2013-01-21 08:45:00,18.5,9.7,30.08,South,188,0.0,8.0,68,0.00,,---,0.00,VWS V14.01,2013-01-21 13:45:00,
2013-01-21 08:50:00,18.7,9.9,30.08,South,170,0.0,8.0,68,0.00,,---,0.00,VWS V14.01,2013-01-21 13:50:00,
2013-01-21 08:55:00,18.8,10.0,30.07,SW,230,1.0,8.0,68,0.00,,---,0.00,VWS V14.01,2013-01-21 13:55:00,
2013-01-21 09:00:00,18.8,9.7,30.08,SSW,206,2.0,7.0,67,0.00,,---,0.00,VWS V14.01,2013-01-21 14:00:00,
2013-01-21 09:05:00,18.7,9.2,30.08,South,184,0.0,7.0,66,0.00,,---,0.00,VWS V14.01,2013-01-21 14:05:00,
2013-01-21 09:10:00,18.8,9.3,30.08,West,263,0.0,7.0,66,0.00,,---,0.00,VWS V14.01,2013-01-21 14:10:00,
2013-01-21 09:15:00,18.8,9.3,30.08,South,180,0.0,7.0,66,0.00,,---,0.00,VWS V14.01,2013-01-21 14:15:00,
2013-01-21 09:20:00,18.9,9.4,30.08,SSE,165,2.0,7.0,66,0.00,,---,0.00,VWS V14.01,2013-01-21 14:20:00,
2013-01-21 09:25:00,19.0,9.5,30.07,South,188,0.0,7.0,66,0.00,,---,0.00,VWS V14.01,2013-01-21 14:25:00,
2013-01-21 09:30:00,19.1,10.0,30.07,South,180,0.0,2.0,67,0.00,,---,0.00,VWS V14.01,2013-01-21 14:30:00,
2013-01-21 09:35:00,19.2,9.7,30.07,WNW,294,0.0,6.0,66,0.00,,---,0.00,VWS V14.01,2013-01-21 14:35:00,
2013-01-21 09:40:00,19.2,9.4,30.07,SSW,204,0.0,6.0,65,0.00,,---,0.00,VWS V14.01,2013-01-21 14:40:00,
2013-01-21 09:45:00,19.3,10.1,30.07,SSW,204,0.0,6.0,67,0.00,,---,0.00,VWS V14.01,2013-01-21 14:45:00,
2013-01-21 09:50:00,19.4,9.9,30.07,SSW,195,0.0,6.0,66,0.00,,---,0.00,VWS V14.01,2013-01-21 14:50:00,
2013-01-21 09:55:00,19.5,9.7,30.07,SW,234,0.0,7.0,65,0.00,,---,0.00,VWS V14.01,2013-01-21 14:55:00,
2013-01-21 10:00:00,19.4,9.9,30.07,SW,233,1.0,3.0,66,0.00,,---,0.00,VWS V14.01,2013-01-21 15:00:00,
2013-01-21 10:05:00,19.4,9.9,30.07,SW,233,0.0,3.0,66,0.00,,---,0.00,VWS V14.01,2013-01-21 15:05:00,
2013-01-21 10:10:00,19.4,9.9,30.07,SSW,207,1.0,3.0,66,0.00,,---,0.00,VWS V14.01,2013-01-21 15:10:00,
2013-01-21 10:15:00,19.4,9.9,30.07,SSW,202,1.0,5.0,66,0.00,,---,0.00,VWS V14.01,2013-01-21 15:15:00,
2013-01-21 10:21:00,19.4,9.6,30.06,SSW,207,3.0,7.0,65,0.00,,---,0.00,VWS V14.01,2013-01-21 15:21:00,
2013-01-21 10:26:00,19.3,9.5,30.06,SSW,209,1.0,8.0,65,0.00,,---,0.00,VWS V14.01,2013-01-21 15:26:00,
2013-01-21 10:30:00,19.2,9.4,30.06,South,191,2.0,8.0,65,0.00,,---,0.00,VWS V14.01,2013-01-21 15:30:00,
2013-01-21 10:31:00,19.2,9.4,30.06,SW,219,0.0,9.0,65,0.00,,---,0.00,VWS V14.01,2013-01-21 15:31:00,
2013-01-21 10:36:00,19.4,9.9,30.06,SSW,201,0.0,9.0,66,0.00,,---,0.00,VWS V14.01,2013-01-21 15:36:00,
2013-01-21 10:41:00,19.6,9.8,30.06,SW,225,0.0,9.0,65,0.00,,---,0.00,VWS V14.01,2013-01-21 15:41:00,
2013-01-21 10:46:00,19.8,9.6,30.06,SW,216,0.0,9.0,64,0.00,,---,0.00,VWS V14.01,2013-01-21 15:46:00,
2013-01-21 10:51:00,19.8,9.9,30.05,SW,215,3.0,9.0,65,0.00,,---,0.00,VWS V14.01,2013-01-21 15:51:00,
2013-01-21 10:56:00,19.9,8.6,30.05,South,190,0.0,9.0,61,0.00,,---,0.00,VWS V14.01,2013-01-21 15:56:00,
2013-01-21 11:00:00,19.9,8.6,30.05,South,170,1.0,9.0,61,0.00,,---,0.00,VWS V14.01,2013-01-21 16:00:00,
2013-01-21 11:01:00,20.0,8.7,30.05,North,358,1.0,3.0,61,0.00,,---,0.00,VWS V14.01,2013-01-21 16:01:00,
2013-01-21 11:06:00,20.1,9.2,30.05,NNW,336,1.0,6.0,62,0.00,,---,0.00,VWS V14.01,2013-01-21 16:06:00,
2013-01-21 11:11:00,20.2,9.3,30.04,WSW,258,0.0,6.0,62,0.00,,---,0.00,VWS V14.01,2013-01-21 16:11:00,
2013-01-21 11:16:00,20.4,9.8,30.05,ESE,102,0.0,6.0,63,0.00,,---,0.00,VWS V14.01,2013-01-21 16:16:00,
2013-01-21 11:21:00,20.4,9.8,30.04,SSW,203,2.0,6.0,63,0.00,,---,0.00,VWS V14.01,2013-01-21 16:21:00,
2013-01-21 11:26:00,20.4,10.2,30.04,SW,229,1.0,6.0,64,0.00,,---,0.00,VWS V14.01,2013-01-21 16:26:00,
2013-01-21 11:30:00,20.5,10.6,30.04,NNW,348,1.0,6.0,65,0.00,,---,0.00,VWS V14.01,2013-01-21 16:30:00,
2013-01-21 11:31:00,20.5,10.6,30.04,NNW,332,1.0,5.0,65,0.00,,---,0.00,VWS V14.01,2013-01-21 16:31:00,
2013-01-21 11:36:00,20.4,10.9,30.03,South,185,3.0,5.0,66,0.00,,---,0.00,VWS V14.01,2013-01-21 16:36:00,
2013-01-21 11:41:00,20.4,11.2,30.03,WSW,239,0.0,5.0,67,0.00,,---,0.00,VWS V14.01,2013-01-21 16:41:00,
2013-01-21 11:46:00,20.6,11.4,30.02,West,266,0.0,7.0,67,0.00,,---,0.00,VWS V14.01,2013-01-21 16:46:00,
2013-01-21 11:51:00,20.5,11.6,30.02,WNW,286,1.0,8.0,68,0.00,,---,0.00,VWS V14.01,2013-01-21 16:51:00,
2013-01-21 11:56:00,20.5,12.0,30.02,West,273,1.0,8.0,69,0.00,,---,0.00,VWS V14.01,2013-01-21 16:56:00,
2013-01-21 12:00:00,20.4,12.2,30.02,WNW,288,2.0,8.0,70,0.00,,---,0.00,VWS V14.01,2013-01-21 17:00:00,
2013-01-21 12:01:00,20.4,12.5,30.02,West,265,5.0,7.0,71,0.00,,---,0.00,VWS V14.01,2013-01-21 17:01:00,
2013-01-21 12:06:00,20.0,13.1,30.02,NW,323,1.0,7.0,74,0.00,,---,0.00,VWS V14.01,2013-01-21 17:06:00,
2013-01-21 12:11:00,19.6,14.2,30.01,NNE,26,0.0,7.0,79,0.00,,---,0.00,VWS V14.01,2013-01-21 17:11:00,
2013-01-21 12:16:00,19.4,14.5,30.01,NNW,331,0.0,7.0,81,0.00,,---,0.00,VWS V14.01,2013-01-21 17:16:00,
2013-01-21 12:21:00,19.2,14.6,30.01,SSW,206,1.0,8.0,82,0.00,,---,0.00,VWS V14.01,2013-01-21 17:21:00,
2013-01-21 12:26:00,19.2,14.1,30.00,SE,136,0.0,8.0,80,0.00,,---,0.00,VWS V14.01,2013-01-21 17:26:00,
2013-01-21 12:30:00,19.3,14.1,30.00,SE,136,0.0,8.0,80,0.00,,---,0.00,VWS V14.01,2013-01-21 17:30:00,
2013-01-21 12:31:00,19.4,13.7,30.00,WSW,255,0.0,7.0,78,0.00,,---,0.00,VWS V14.01,2013-01-21 17:31:00,
2013-01-21 12:36:00,19.7,13.7,30.00,SSW,203,0.0,11.0,77,0.00,,---,0.00,VWS V14.01,2013-01-21 17:36:00,
2013-01-21 12:41:00,19.9,13.3,29.99,NW,321,1.0,11.0,75,0.00,,---,0.00,VWS V14.01,2013-01-21 17:41:00,
2013-01-21 12:46:00,20.2,13.2,29.99,SSW,194,4.0,11.0,74,0.00,,---,0.00,VWS V14.01,2013-01-21 17:46:00,
2013-01-21 12:51:00,20.5,12.9,29.99,NNW,336,1.0,11.0,72,0.00,,---,0.00,VWS V14.01,2013-01-21 17:51:00,
2013-01-21 12:56:00,21.0,13.7,29.98,North,1,6.0,11.0,73,0.00,,---,0.00,VWS V14.01,2013-01-21 17:56:00,
2013-01-21 13:00:00,21.1,13.5,29.98,NW,325,0.0,11.0,72,0.00,,---,0.00,VWS V14.01,2013-01-21 18:00:00,
2013-01-21 13:01:00,21.1,12.5,29.98,SSE,165,0.0,6.0,69,0.00,,---,0.00,VWS V14.01,2013-01-21 18:01:00,
2013-01-21 13:06:00,21.3,13.1,29.99,SE,127,1.0,6.0,70,0.00,,---,0.00,VWS V14.01,2013-01-21 18:06:00,
2013-01-21 13:11:00,21.3,11.4,29.99,West,278,0.0,8.0,65,0.00,,---,0.00,VWS V14.01,2013-01-21 18:11:00,
2013-01-21 13:16:00,21.2,10.2,29.99,NW,307,4.0,8.0,62,0.00,,---,0.00,VWS V14.01,2013-01-21 18:16:00,
2013-01-21 13:21:00,21.2,10.2,29.99,North,357,4.0,8.0,62,0.00,,---,0.00,VWS V14.01,2013-01-21 18:21:00,
2013-01-21 13:26:00,21.2,9.5,29.99,NNW,348,1.0,8.0,60,0.00,,---,0.00,VWS V14.01,2013-01-21 18:26:00,
2013-01-21 13:30:00,21.3,10.0,29.99,WSW,240,3.0,8.0,61,0.00,,---,0.00,VWS V14.01,2013-01-21 18:30:00,
2013-01-21 13:32:00,21.3,10.0,29.99,SW,216,1.0,6.0,61,0.00,,---,0.00,VWS V14.01,2013-01-21 18:32:00,
2013-01-21 13:37:00,21.0,9.3,29.99,NNW,331,0.0,7.0,60,0.00,,---,0.00,VWS V14.01,2013-01-21 18:37:00,
2013-01-21 13:42:00,20.8,9.1,29.99,NW,304,1.0,7.0,60,0.00,,---,0.00,VWS V14.01,2013-01-21 18:42:00,
2013-01-21 13:47:00,20.6,8.9,29.99,WSW,255,2.0,9.0,60,0.00,,---,0.00,VWS V14.01,2013-01-21 18:47:00,
2013-01-21 13:52:00,20.6,8.9,29.99,NNW,328,2.0,9.0,60,0.00,,---,0.00,VWS V14.01,2013-01-21 18:52:00,
2013-01-21 13:57:00,20.7,9.0,30.00,South,188,5.0,9.0,60,0.00,,---,0.00,VWS V14.01,2013-01-21 18:57:00,
2013-01-21 14:00:00,20.8,9.1,30.00,WSW,249,0.0,9.0,60,0.00,,---,0.00,VWS V14.01,2013-01-21 19:00:00,
2013-01-21 14:02:00,20.7,8.6,30.00,NW,319,2.0,8.0,59,0.00,,---,0.00,VWS V14.01,2013-01-21 19:02:00,
2013-01-21 14:07:00,20.7,9.0,30.00,WSW,242,0.0,8.0,60,0.00,,---,0.00,VWS V14.01,2013-01-21 19:07:00,
2013-01-21 14:12:00,20.5,9.9,30.00,West,266,1.0,8.0,63,0.00,,---,0.00,VWS V14.01,2013-01-21 19:12:00,
2013-01-21 14:17:00,20.5,10.3,30.00,SSE,165,4.0,8.0,64,0.00,,---,0.00,VWS V14.01,2013-01-21 19:17:00,
2013-01-21 14:22:00,20.4,9.8,30.00,NW,312,1.0,8.0,63,0.00,,---,0.00,VWS V14.01,2013-01-21 19:22:00,
2013-01-21 14:27:00,20.6,10.4,30.00,ESE,121,2.0,8.0,64,0.00,,---,0.00,VWS V14.01,2013-01-21 19:27:00,
2013-01-21 14:30:00,20.6,10.4,30.00,SSW,201,0.0,8.0,64,0.00,,---,0.00,VWS V14.01,2013-01-21 19:30:00,
2013-01-21 14:32:00,20.6,10.7,30.00,SSE,152,3.0,5.0,65,0.00,,---,0.00,VWS V14.01,2013-01-21 19:32:00,
2013-01-21 14:37:00,20.4,10.9,30.00,WSW,240,1.0,7.0,66,0.00,,---,0.00,VWS V14.01,2013-01-21 19:37:00,
2013-01-21 14:42:00,20.5,10.6,30.00,NW,315,1.0,7.0,65,0.00,,---,0.00,VWS V14.01,2013-01-21 19:42:00,
2013-01-21 14:47:00,20.6,10.0,30.00,SW,231,0.0,9.0,63,0.00,,---,0.00,VWS V14.01,2013-01-21 19:47:00,
2013-01-21 14:52:00,20.5,10.6,30.00,SSW,212,3.0,9.0,65,0.00,,---,0.00,VWS V14.01,2013-01-21 19:52:00,
2013-01-21 14:57:00,20.5,11.3,30.00,SW,226,0.0,9.0,67,0.00,,---,0.00,VWS V14.01,2013-01-21 19:57:00,
2013-01-21 15:00:00,20.4,11.2,30.00,SW,226,4.0,9.0,67,0.00,,---,0.00,VWS V14.01,2013-01-21 20:00:00,
2013-01-21 15:02:00,20.3,11.8,30.00,South,187,4.0,4.0,69,0.00,,---,0.00,VWS V14.01,2013-01-21 20:02:00,
2013-01-21 15:07:00,20.1,11.9,30.00,West,259,1.0,4.0,70,0.00,,---,0.00,VWS V14.01,2013-01-21 20:07:00,
2013-01-21 15:12:00,20.0,10.5,30.00,NW,311,6.0,6.0,66,0.00,,---,0.00,VWS V14.01,2013-01-21 20:12:00,
2013-01-21 15:17:00,19.8,9.9,30.00,WSW,243,1.0,8.0,65,0.00,,---,0.00,VWS V14.01,2013-01-21 20:17:00,
2013-01-21 15:22:00,19.8,10.6,30.01,South,180,2.0,9.0,67,0.00,,---,0.00,VWS V14.01,2013-01-21 20:22:00,
2013-01-21 15:27:00,19.3,10.1,30.01,South,180,2.0,11.0,67,0.00,,---,0.00,VWS V14.01,2013-01-21 20:27:00,
2013-01-21 15:30:00,19.3,10.1,30.01,WSW,249,2.0,11.0,67,0.00,,---,0.00,VWS V14.01,2013-01-21 20:30:00,
2013-01-21 15:32:00,19.1,10.3,30.01,WSW,242,3.0,11.0,68,0.00,,---,0.00,VWS V14.01,2013-01-21 20:32:00,
2013-01-21 15:37:00,19.2,11.0,30.02,NW,322,2.0,11.0,70,0.00,,---,0.00,VWS V14.01,2013-01-21 20:37:00,
2013-01-21 15:42:00,19.1,9.6,30.01,SSW,209,0.0,11.0,66,0.00,,---,0.00,VWS V14.01,2013-01-21 20:42:00,
2013-01-21 15:47:00,19.0,8.5,30.02,SSW,213,2.0,11.0,63,0.00,,---,0.00,VWS V14.01,2013-01-21 20:47:00,
2013-01-21 15:52:00,19.0,8.1,30.02,SW,223,6.0,11.0,62,0.00,,---,0.00,VWS V14.01,2013-01-21 20:52:00,
2013-01-21 15:57:00,19.0,7.8,30.02,South,184,4.0,11.0,61,0.00,,---,0.00,VWS V14.01,2013-01-21 20:57:00,
2013-01-21 16:00:00,19.0,7.8,30.02,South,184,4.0,11.0,61,0.00,,---,0.00,VWS V14.01,2013-01-21 21:00:00,
2013-01-21 16:02:00,18.9,7.3,30.02,SW,216,3.0,13.0,60,0.00,,---,0.00,VWS V14.01,2013-01-21 21:02:00,
2013-01-21 16:07:00,18.7,6.8,30.03,WSW,255,2.0,13.0,59,0.00,,---,0.00,VWS V14.01,2013-01-21 21:07:00,
2013-01-21 16:12:00,18.8,6.9,30.03,North,351,0.0,13.0,59,0.00,,---,0.00,VWS V14.01,2013-01-21 21:12:00,
2013-01-21 16:17:00,19.0,7.4,30.04,SW,230,0.0,13.0,60,0.00,,---,0.00,VWS V14.01,2013-01-21 21:17:00,
2013-01-21 16:22:00,18.2,9.4,30.04,WNW,290,0.0,13.0,68,0.00,,---,0.00,VWS V14.01,2013-01-21 21:22:00,
2013-01-21 16:27:00,17.6,9.2,30.04,SW,228,1.0,1.0,69,0.00,,---,0.00,VWS V14.01,2013-01-21 21:27:00,
2013-01-21 16:30:00,17.6,9.2,30.04,WSW,251,1.0,13.0,69,0.00,,---,0.00,VWS V14.01,2013-01-21 21:30:00,
2013-01-21 16:32:00,17.5,8.8,30.05,NW,305,4.0,8.0,68,0.00,,---,0.00,VWS V14.01,2013-01-21 21:32:00,
2013-01-21 16:37:00,16.9,9.8,30.05,WSW,251,0.0,8.0,73,0.00,,---,0.00,VWS V14.01,2013-01-21 21:37:00,
2013-01-21 16:42:00,16.7,10.2,30.05,SE,146,0.0,8.0,75,0.00,,---,0.00,VWS V14.01,2013-01-21 21:42:00,
2013-01-21 16:47:00,16.4,9.6,30.05,West,279,0.0,8.0,74,0.00,,---,0.00,VWS V14.01,2013-01-21 21:47:00,
2013-01-21 16:52:00,16.2,9.4,30.05,West,269,1.0,8.0,74,0.00,,---,0.00,VWS V14.01,2013-01-21 21:52:00,
2013-01-21 16:57:00,16.1,10.2,30.05,NNW,340,0.0,1.0,77,0.00,,---,0.00,VWS V14.01,2013-01-21 21:57:00,
2013-01-21 17:00:00,16.2,10.3,30.05,NNW,334,1.0,8.0,77,0.00,,---,0.00,VWS V14.01,2013-01-21 22:00:00,
2013-01-21 17:02:00,16.1,10.5,30.05,SW,222,0.0,3.0,78,0.00,,---,0.00,VWS V14.01,2013-01-21 22:02:00,
2013-01-21 17:08:00,16.0,10.1,30.05,West,259,1.0,9.0,77,0.00,,---,0.00,VWS V14.01,2013-01-21 22:08:00,
2013-01-21 17:13:00,15.8,9.0,30.05,ESE,107,0.0,10.0,74,0.00,,---,0.00,VWS V14.01,2013-01-21 22:13:00,
2013-01-21 17:18:00,15.7,8.6,30.06,ESE,113,8.0,10.0,73,0.00,,---,0.00,VWS V14.01,2013-01-21 22:18:00,
2013-01-21 17:23:00,15.7,8.3,30.06,SW,219,0.0,10.0,72,0.00,,---,0.00,VWS V14.01,2013-01-21 22:23:00,
2013-01-21 17:28:00,15.6,7.9,30.06,West,263,1.0,1.0,71,0.00,,---,0.00,VWS V14.01,2013-01-21 22:28:00,
2013-01-21 17:30:00,15.6,7.9,30.06,West,263,0.0,10.0,71,0.00,,---,0.00,VWS V14.01,2013-01-21 22:30:00,
2013-01-21 17:33:00,15.6,7.9,30.06,West,278,0.0,6.0,71,0.00,,---,0.00,VWS V14.01,2013-01-21 22:33:00,
2013-01-21 17:38:00,15.6,7.9,30.06,West,262,0.0,6.0,71,0.00,,---,0.00,VWS V14.01,2013-01-21 22:38:00,
2013-01-21 17:43:00,15.5,7.8,30.06,NNW,340,1.0,6.0,71,0.00,,---,0.00,VWS V14.01,2013-01-21 22:43:00,
2013-01-21 17:48:00,15.5,7.8,30.06,South,184,0.0,6.0,71,0.00,,---,0.00,VWS V14.01,2013-01-21 22:48:00,
2013-01-21 17:53:00,15.5,7.5,30.06,WSW,258,0.0,6.0,70,0.00,,---,0.00,VWS V14.01,2013-01-21 22:53:00,
2013-01-21 17:58:00,15.5,7.5,30.06,WSW,240,1.0,2.0,70,0.00,,---,0.00,VWS V14.01,2013-01-21 22:58:00,
2013-01-21 18:00:00,15.5,7.5,30.06,WSW,251,2.0,9.0,70,0.00,,---,0.00,VWS V14.01,2013-01-21 23:00:00,
2013-01-21 18:03:00,15.5,7.5,30.06,WSW,251,0.0,2.0,70,0.00,,---,0.00,VWS V14.01,2013-01-21 23:03:00,
2013-01-21 18:08:00,15.6,7.3,30.06,NW,308,0.0,7.0,69,0.00,,---,0.00,VWS V14.01,2013-01-21 23:08:00,
2013-01-21 18:13:00,15.5,7.2,30.06,South,189,3.0,7.0,69,0.00,,---,0.00,VWS V14.01,2013-01-21 23:13:00,
2013-01-21 18:18:00,15.5,7.2,30.06,ESE,107,0.0,7.0,69,0.00,,---,0.00,VWS V14.01,2013-01-21 23:18:00,
2013-01-21 18:23:00,15.6,7.6,30.07,SE,144,0.0,7.0,70,0.00,,---,0.00,VWS V14.01,2013-01-21 23:23:00,
2013-01-21 18:28:00,15.5,8.4,30.07,WNW,288,0.0,1.0,73,0.00,,---,0.00,VWS V14.01,2013-01-21 23:28:00,
2013-01-21 18:30:00,15.5,8.4,30.07,WNW,288,0.0,8.0,73,0.00,,---,0.00,VWS V14.01,2013-01-21 23:30:00,
2013-01-21 18:33:00,15.3,9.4,30.06,East,101,2.0,8.0,77,0.00,,---,0.00,VWS V14.01,2013-01-21 23:33:00,
2013-01-21 18:38:00,15.0,9.7,30.07,SE,130,3.0,8.0,79,0.00,,---,0.00,VWS V14.01,2013-01-21 23:38:00,
2013-01-21 18:43:00,14.9,9.6,30.07,SW,228,0.0,8.0,79,0.00,,---,0.00,VWS V14.01,2013-01-21 23:43:00,
2013-01-21 18:48:00,14.9,9.6,30.07,SW,223,0.0,8.0,79,0.00,,---,0.00,VWS V14.01,2013-01-21 23:48:00,
2013-01-21 18:53:00,14.9,9.6,30.07,SSW,194,0.0,8.0,79,0.00,,---,0.00,VWS V14.01,2013-01-21 23:53:00,
2013-01-21 18:58:00,14.8,9.5,30.07,SSW,192,0.0,2.0,79,0.00,,---,0.00,VWS V14.01,2013-01-21 23:58:00,
2013-01-21 19:00:00,14.8,9.8,30.07,South,191,0.0,8.0,80,0.00,,---,0.00,VWS V14.01,2013-01-22 00:00:00,
2013-01-21 19:03:00,14.8,9.5,30.07,South,170,2.0,8.0,79,0.00,,---,0.00,VWS V14.01,2013-01-22 00:03:00,
2013-01-21 19:08:00,14.8,8.6,30.07,WNW,298,1.0,9.0,76,0.00,,---,0.00,VWS V14.01,2013-01-22 00:08:00,
2013-01-21 19:13:00,14.8,6.8,30.07,North,359,4.0,9.0,70,0.00,,---,0.00,VWS V14.01,2013-01-22 00:13:00,
2013-01-21 19:18:00,14.7,6.1,30.07,SSW,201,2.0,11.0,68,0.00,,---,0.00,VWS V14.01,2013-01-22 00:18:00,
2013-01-21 19:23:00,14.7,7.0,30.07,NNW,340,6.0,11.0,71,0.00,,---,0.00,VWS V14.01,2013-01-22 00:23:00,
2013-01-21 19:28:00,14.6,6.9,30.07,South,170,2.0,3.0,71,0.00,,---,0.00,VWS V14.01,2013-01-22 00:28:00,
2013-01-21 19:30:00,14.6,6.9,30.07,SW,236,0.0,12.0,71,0.00,,---,0.00,VWS V14.01,2013-01-22 00:30:00,
2013-01-21 19:33:00,14.6,7.5,30.08,NW,313,0.0,7.0,73,0.00,,---,0.00,VWS V14.01,2013-01-22 00:33:00,
2013-01-21 19:38:00,14.4,7.9,30.08,WNW,296,1.0,7.0,75,0.00,,---,0.00,VWS V14.01,2013-01-22 00:38:00,
2013-01-21 19:43:00,14.3,8.4,30.08,NNW,334,2.0,7.0,77,0.00,,---,0.00,VWS V14.01,2013-01-22 00:43:00,
2013-01-21 19:48:00,14.0,9.0,30.08,West,265,2.0,7.0,80,0.00,,---,0.00,VWS V14.01,2013-01-22 00:48:00,
2013-01-21 19:53:00,13.8,9.1,30.09,SE,143,1.0,7.0,81,0.00,,---,0.00,VWS V14.01,2013-01-22 00:53:00,
2013-01-21 19:58:00,13.7,9.5,30.08,North,350,2.0,3.0,83,0.00,,---,0.00,VWS V14.01,2013-01-22 00:58:00,
2013-01-21 20:00:00,13.7,9.2,30.08,West,262,1.0,7.0,82,0.00,,---,0.00,VWS V14.01,2013-01-22 01:00:00,
2013-01-21 20:03:00,13.6,9.1,30.08,SSE,155,3.0,7.0,82,0.00,,---,0.00,VWS V14.01,2013-01-22 01:03:00,
2013-01-21 20:08:00,13.4,8.7,30.08,SSE,149,0.0,7.0,81,0.00,,---,0.00,VWS V14.01,2013-01-22 01:08:00,
2013-01-21 20:13:00,13.2,8.5,30.08,WSW,246,0.0,9.0,81,0.00,,---,0.00,VWS V14.01,2013-01-22 01:13:00,
2013-01-21 20:18:00,13.1,8.4,30.08,SW,216,0.0,9.0,81,0.00,,---,0.00,VWS V14.01,2013-01-22 01:18:00,
2013-01-21 20:23:00,13.0,8.6,30.08,SW,217,0.0,10.0,82,0.00,,---,0.00,VWS V14.01,2013-01-22 01:23:00,
2013-01-21 20:28:00,12.9,8.4,30.08,WSW,244,0.0,0.0,82,0.00,,---,0.00,VWS V14.01,2013-01-22 01:28:00,
2013-01-21 20:30:00,12.9,8.4,30.08,WSW,244,0.0,10.0,82,0.00,,---,0.00,VWS V14.01,2013-01-22 01:30:00,
2013-01-21 20:33:00,13.0,8.3,30.09,West,265,1.0,6.0,81,0.00,,---,0.00,VWS V14.01,2013-01-22 01:33:00,
2013-01-21 20:38:00,13.0,8.8,30.09,SSE,154,8.0,8.0,83,0.00,,---,0.00,VWS V14.01,2013-01-22 01:38:00,
2013-01-21 20:44:00,13.0,9.1,30.09,West,260,0.0,8.0,84,0.00,,---,0.00,VWS V14.01,2013-01-22 01:44:00,
2013-01-21 20:48:00,12.8,8.9,30.09,WSW,256,0.0,8.0,84,0.00,,---,0.00,VWS V14.01,2013-01-22 01:48:00,
2013-01-21 20:54:00,12.8,8.9,30.10,SSW,211,2.0,8.0,84,0.00,,---,0.00,VWS V14.01,2013-01-22 01:54:00,
2013-01-21 20:59:00,12.7,8.8,30.10,WSW,249,2.0,4.0,84,0.00,,---,0.00,VWS V14.01,2013-01-22 01:59:00,
2013-01-21 21:00:00,12.7,9.1,30.10,WSW,244,0.0,8.0,85,0.00,,---,0.00,VWS V14.01,2013-01-22 02:00:00,
2013-01-21 21:04:00,12.6,9.0,30.10,SW,236,0.0,5.0,85,0.00,,---,0.00,VWS V14.01,2013-01-22 02:04:00,
2013-01-21 21:09:00,12.6,9.0,30.10,NW,317,0.0,5.0,85,0.00,,---,0.00,VWS V14.01,2013-01-22 02:09:00,
2013-01-21 21:14:00,12.5,8.6,30.10,NW,305,1.0,10.0,84,0.00,,---,0.00,VWS V14.01,2013-01-22 02:14:00,
2013-01-21 21:19:00,12.3,8.1,30.10,South,188,3.0,10.0,83,0.00,,---,0.00,VWS V14.01,2013-01-22 02:19:00,
2013-01-21 21:24:00,12.3,7.9,30.10,WSW,252,3.0,10.0,82,0.00,,---,0.00,VWS V14.01,2013-01-22 02:24:00,
2013-01-21 21:29:00,12.2,7.5,30.10,SW,229,0.0,2.0,81,0.00,,---,0.00,VWS V14.01,2013-01-22 02:29:00,
2013-01-21 21:30:00,12.2,7.5,30.10,SW,228,2.0,10.0,81,0.00,,---,0.00,VWS V14.01,2013-01-22 02:30:00,
2013-01-21 21:34:00,12.2,7.5,30.10,South,180,1.0,8.0,81,0.00,,---,0.00,VWS V14.01,2013-01-22 02:34:00,
2013-01-21 21:39:00,12.3,7.9,30.11,WSW,246,2.0,8.0,82,0.00,,---,0.00,VWS V14.01,2013-01-22 02:39:00,
2013-01-21 21:44:00,12.2,8.0,30.11,WSW,248,1.0,8.0,83,0.00,,---,0.00,VWS V14.01,2013-01-22 02:44:00,
2013-01-21 21:49:00,12.1,8.2,30.11,WNW,282,0.0,8.0,84,0.00,,---,0.00,VWS V14.01,2013-01-22 02:49:00,
2013-01-21 21:54:00,12.0,8.4,30.11,WSW,249,2.0,8.0,85,0.00,,---,0.00,VWS V14.01,2013-01-22 02:54:00,
2013-01-21 21:59:00,11.7,8.3,30.11,West,276,0.0,2.0,86,0.00,,---,0.00,VWS V14.01,2013-01-22 02:59:00,
2013-01-21 22:00:00,11.8,8.4,30.11,NW,316,2.0,8.0,86,0.00,,---,0.00,VWS V14.01,2013-01-22 03:00:00,
2013-01-21 22:04:00,11.6,8.5,30.11,WSW,242,1.0,5.0,87,0.00,,---,0.00,VWS V14.01,2013-01-22 03:04:00,
2013-01-21 22:09:00,11.5,8.1,30.11,NNE,24,0.0,5.0,86,0.00,,---,0.00,VWS V14.01,2013-01-22 03:09:00,
2013-01-21 22:14:00,11.4,7.0,30.10,WSW,255,1.0,7.0,82,0.00,,---,0.00,VWS V14.01,2013-01-22 03:14:00,
2013-01-21 22:19:00,11.4,6.4,30.11,NNW,342,1.0,7.0,80,0.00,,---,0.00,VWS V14.01,2013-01-22 03:19:00,
2013-01-21 22:24:00,11.3,5.5,30.11,NNW,334,7.0,7.0,77,0.00,,---,0.00,VWS V14.01,2013-01-22 03:24:00,
2013-01-21 22:29:00,11.1,5.0,30.11,West,278,4.0,6.0,76,0.00,,---,0.00,VWS V14.01,2013-01-22 03:29:00,
2013-01-21 22:30:00,11.1,5.0,30.12,SE,136,2.0,9.0,76,0.00,,---,0.00,VWS V14.01,2013-01-22 03:30:00,
2013-01-21 22:34:00,11.1,5.0,30.12,West,278,4.0,6.0,76,0.00,,---,0.00,VWS V14.01,2013-01-22 03:34:00,
2013-01-21 22:39:00,10.8,4.4,30.12,WNW,301,0.0,6.0,75,0.00,,---,0.00,VWS V14.01,2013-01-22 03:39:00,
2013-01-21 22:44:00,10.6,4.2,30.12,NW,317,0.0,6.0,75,0.00,,---,0.00,VWS V14.01,2013-01-22 03:44:00,
2013-01-21 22:49:00,10.5,4.2,30.12,West,271,1.0,6.0,75,0.00,,---,0.00,VWS V14.01,2013-01-22 03:49:00,
2013-01-21 22:54:00,10.4,4.1,30.13,NW,313,4.0,6.0,75,0.00,,---,0.00,VWS V14.01,2013-01-22 03:54:00,
2013-01-21 22:59:00,10.3,4.2,30.12,SSW,205,0.0,3.0,76,0.00,,---,0.00,VWS V14.01,2013-01-22 03:59:00,
2013-01-21 23:00:00,10.3,4.0,30.12,SE,143,3.0,6.0,75,0.00,,---,0.00,VWS V14.01,2013-01-22 04:00:00,
2013-01-21 23:04:00,10.3,4.2,30.12,South,188,5.0,6.0,76,0.00,,---,0.00,VWS V14.01,2013-01-22 04:04:00,
2013-01-21 23:09:00,10.4,4.1,30.12,WSW,241,0.0,6.0,75,0.00,,---,0.00,VWS V14.01,2013-01-22 04:09:00,
2013-01-21 23:14:00,10.5,4.2,30.12,WSW,243,0.0,6.0,75,0.00,,---,0.00,VWS V14.01,2013-01-22 04:14:00,
2013-01-21 23:19:00,10.7,4.1,30.12,WNW,286,1.0,6.0,74,0.00,,---,0.00,VWS V14.01,2013-01-22 04:19:00,
2013-01-21 23:24:00,10.7,3.2,30.13,NW,325,0.0,7.0,71,0.00,,---,0.00,VWS V14.01,2013-01-22 04:24:00,
2013-01-21 23:29:00,10.7,3.2,30.13,SW,233,0.0,6.0,71,0.00,,---,0.00,VWS V14.01,2013-01-22 04:29:00,
2013-01-21 23:30:00,10.7,3.2,30.13,WNW,286,0.0,7.0,71,0.00,,---,0.00,VWS V14.01,2013-01-22 04:30:00,
2013-01-21 23:34:00,10.7,3.8,30.13,West,273,0.0,6.0,73,0.00,,---,0.00,VWS V14.01,2013-01-22 04:34:00,
2013-01-21 23:39:00,10.6,3.7,30.13,NW,304,7.0,8.0,73,0.00,,---,0.00,VWS V14.01,2013-01-22 04:39:00,
2013-01-21 23:44:00,10.4,4.1,30.12,North,5,0.0,8.0,75,0.00,,---,0.00,VWS V14.01,2013-01-22 04:44:00,
2013-01-21 23:49:00,10.2,4.4,30.13,SW,233,2.0,8.0,77,0.00,,---,0.00,VWS V14.01,2013-01-22 04:49:00,
2013-01-21 23:54:00,10.0,5.1,30.13,WSW,245,1.0,8.0,80,0.00,,---,0.00,VWS V14.01,2013-01-22 04:54:00,
2013-01-21 23:59:00,9.7,5.1,30.13,West,261,0.0,7.0,81,0.00,,---,0.00,VWS V14.01,2013-01-22 04:59:00,